[[{"header":{"parameterUnit":"m.s-1","parameterCategory":1,"la1":30.2991,"la2":30.254,"lo1":-89.0895,"lo2":-89.0444,"dy":0.0017,"dx":0.0017,"nx":28,"ny":28,"refTime":"2024-03-18T09:00:00:Z","depth":0,"parameterNumber":2,"parameterNumberName":"U-component_of_WINDS"},"data":[0,0,0,0,0,0,0,0,0,0,0,0,0,0,0,0,0,0,0,0,0,0,0,0,0,0,0,0,0,0,0,0,0,0,0,0,0,0,0,0,0,0,0,0,0,0,0,0,0,0,0,0,0,0,0,0,0,0,1.3063,1.3064,0,1.3091,1.3092,1.3092,1.3109,1.3109,1.311,1.311,1.3137,1.3137,1.3138,0,0,0,0,0,0,0,0,0,0,0,0,0,1.3024,1.3025,1.3063,1.3064,1.3064,1.3091,1.3092,1.3092,1.3109,1.3109,1.311,1.311,1.3136,1.3137,1.3138,0,0,0,0,0,0,0,0,0,0,0,0,0,1.3046,1.3025,1.3063,1.3076,1.3077,1.3091,1.3092,1.3092,1.3109,1.3109,1.311,1.311,1.3136,1.3137,1.3138,1.3141,0,0,1.3141,1.3141,0,0,0,0,0,0,0,0,1.3044,1.3047,1.3074,1.3075,1.3077,1.3097,1.3088,1.3108,1.3109,1.3097,1.311,1.311,1.3123,1.3125,1.313,1.3142,1.3143,1.3141,1.3141,1.3142,1.3142,0,0,0,0,0,0,0,1.3043,1.3046,1.3074,1.3074,1.3076,1.308,1.3083,1.3092,1.3109,1.3098,1.31,1.3103,1.3124,1.3129,1.3131,1.3144,1.3141,1.3142,1.3142,1.3143,1.3161,1.3161,0,0,0,0,0,0,1.3039,1.3045,1.3073,1.3075,1.3061,1.3081,1.3084,1.309,1.3109,1.3112,1.3103,1.3103,1.3127,1.313,1.3132,1.3137,1.3142,1.3143,1.3143,1.3161,1.3161,1.3161,0,0,0,0,0,0,1.3039,1.3042,1.3072,1.306,1.3064,1.3081,1.3088,1.3091,1.3096,1.3112,1.3115,1.3105,1.3128,1.3131,1.3139,1.3138,1.3143,1.3144,1.3161,1.3161,1.3161,1.3147,0,0,0,0,0,0,1.3037,1.3041,1.3043,1.306,1.3065,1.3079,1.3088,1.3091,1.3098,1.3099,1.3115,1.3118,1.3128,1.3137,1.314,1.314,1.3145,1.3161,1.3161,1.3161,1.3148,1.3147,1.3146,0,0,0,0,0,1.3036,1.3037,1.3043,1.3046,1.3067,1.3079,1.3082,1.3094,1.3098,1.3099,1.311,1.3117,1.3138,1.3138,1.3141,1.3141,1.3161,1.3161,1.3161,1.3148,1.3147,1.3146,0,0,0,0,0,0,1.3018,1.3039,1.3046,1.3053,1.3064,1.3082,1.3084,1.3092,1.3102,1.3102,1.3117,1.312,1.3127,1.3135,1.3135,1.3146,1.3151,1.3151,1.314,1.3139,1.3138,1.3136,1.3146,0,0,0,0,0,1.3015,1.3023,1.3041,1.3046,1.3051,1.3067,1.3072,1.3081,1.3093,1.3097,1.3109,1.3119,1.3129,1.3134,1.3144,1.3149,1.3153,1.3151,1.315,1.3149,1.3149,1.3154,1.3153,1.316,1.316,1.316,0,0,1.3008,1.3021,1.3025,1.3043,1.3052,1.306,1.307,1.3078,1.3084,1.3098,1.3107,1.3116,1.3129,1.3137,1.314,1.3143,1.3148,1.3149,1.3148,1.3148,1.3153,1.3153,1.3152,1.316,1.316,1.316,0,0,1.3001,1.3011,1.3017,1.3027,1.3042,1.3052,1.3053,1.307,1.3077,1.3087,1.3098,1.3105,1.312,1.313,1.3136,1.3135,1.3142,1.3137,1.3131,1.3136,1.3135,1.3135,1.3134,1.3134,1.3137,1.3137,1.3137,0,1.299,1.3004,1.3018,1.3026,1.3033,1.3048,1.3053,1.3062,1.3079,1.3084,1.3087,1.3108,1.3117,1.3128,1.3127,1.3132,1.3134,1.3135,1.3134,1.3134,1.3134,1.3134,1.3133,1.3136,1.3137,1.3137,1.3137,0,1.2991,1.3,1.3002,1.3019,1.3027,1.3033,1.3049,1.3055,1.3064,1.3074,1.3084,1.3097,1.3109,1.3113,1.312,1.3124,1.3126,1.3131,1.3137,1.3132,1.3132,1.3132,1.3136,1.3136,1.3136,1.3136,0,0,1.2971,1.2997,1.2998,1.3007,1.3025,1.3032,1.304,1.3053,1.3058,1.307,1.3077,1.3091,1.3097,1.3104,1.3114,1.3117,1.3116,1.3123,1.3123,1.3121,1.3122,1.3117,1.3117,1.3121,1.3121,1.3121,1.3121,0,1.2966,1.298,1.2995,1.3004,1.3013,1.3028,1.3035,1.3047,1.3057,1.3066,1.3078,1.3087,1.3094,1.3099,1.3103,1.3115,1.3116,1.3115,1.3128,1.3128,1.3124,1.3117,1.3112,1.311,1.3121,1.3121,1.3121,0,1.2961,1.2974,1.2985,1.3004,1.3008,1.3014,1.3028,1.3036,1.3051,1.3058,1.3068,1.3078,1.3087,1.3092,1.3105,1.3104,1.3111,1.3117,1.3117,1.3119,1.3124,1.3118,1.311,1.311,1.3121,1.3121,1.3121,0,1.2946,1.2965,1.2975,1.2982,1.3004,1.3008,1.3017,1.3032,1.304,1.3052,1.3057,1.307,1.3077,1.3087,1.3101,1.3103,1.3113,1.3118,1.3119,1.3118,1.3119,1.3119,1.3112,1.3124,1.3124,1.3124,1.3124,0,1.2939,1.2945,1.2968,1.2974,1.2982,1.2998,1.3005,1.3016,1.3029,1.3038,1.3051,1.3058,1.3076,1.3086,1.3097,1.3106,1.3109,1.3115,1.3118,1.3114,1.3113,1.3118,1.3118,1.3124,1.3124,1.3124,1.3124,0,1.2922,1.2938,1.2949,1.2971,1.2976,1.2981,1.2999,1.3005,1.3017,1.3027,1.3031,1.3049,1.3061,1.3076,1.3093,1.31,1.3109,1.3113,1.3104,1.3105,1.3105,1.3105,1.3101,1.3101,1.3112,1.3112,1.3112,0,1.2916,1.2921,1.2944,1.2951,1.296,1.2971,1.2979,1.2996,1.3004,1.3022,1.3027,1.304,1.3052,1.307,1.3085,1.3098,1.3103,1.3101,1.3105,1.3101,1.3103,1.3102,1.3103,1.3099,1.3099,1.3099,1.3099,0,1.2904,1.2912,1.2924,1.2939,1.2949,1.2961,1.2974,1.2979,1.2999,1.3007,1.302,1.303,1.3048,1.3061,1.3076,1.3086,1.3096,1.3098,1.3098,1.3094,1.3089,1.3092,1.3101,1.3097,1.3097,1.3097,1.3098,1.3098,1.2892,1.2898,1.2915,1.2928,1.294,1.2953,1.296,1.2974,1.2985,1.3002,1.3011,1.3024,1.304,1.3062,1.3072,1.3082,1.3086,1.3087,1.3087,1.3087,1.3086,1.3087,1.3085,1.3085,1.3085,1.3085,1.3085,0,1.2881,1.2893,1.2905,1.2924,1.2934,1.2944,1.2959,1.2967,1.2979,1.2993,1.3005,1.3021,1.3034,1.3051,1.3066,1.3071,1.3076,1.3074,1.3074,1.3076,1.3082,1.308,1.307,1.307,1.307,1.307,1.307,1.307,1.2876,1.2887,1.2897,1.2915,1.2927,1.294,1.2949,1.296,1.2972,1.2989,1.3001,1.3012,1.3028,1.3044,1.3057,1.3062,1.3066,1.3063,1.3069,1.3074,1.3075,1.3077,1.3075,1.3064,1.3064,1.3063,1.3063,1.3063]},{"header":{"parameterUnit":"m.s-1","parameterCategory":1,"la1":30.2991,"la2":30.254,"lo1":-89.0895,"lo2":-89.0444,"dy":0.0017,"dx":0.0017,"nx":28,"ny":28,"refTime":"2024-03-18T09:00:00:Z","depth":0,"parameterNumber":3,"parameterNumberName":"V-component_of_WINDS"},"data":[0,0,0,0,0,0,0,0,0,0,0,0,0,0,0,0,0,0,0,0,0,0,0,0,0,0,0,0,0,0,0,0,0,0,0,0,0,0,0,0,0,0,0,0,0,0,0,0,0,0,0,0,0,0,0,0,0,0,-8.8373,-8.8375,0,-8.8523,-8.8525,-8.8527,-8.8418,-8.8413,-8.8408,-8.8404,-8.8552,-8.8561,-8.8569,0,0,0,0,0,0,0,0,0,0,0,0,0,-8.7988,-8.7996,-8.8373,-8.8375,-8.8377,-8.8523,-8.8525,-8.8527,-8.8419,-8.8413,-8.8407,-8.8402,-8.855,-8.856,-8.857,0,0,0,0,0,0,0,0,0,0,0,0,0,-8.8148,-8.7998,-8.8373,-8.8341,-8.8339,-8.8523,-8.8525,-8.8528,-8.842,-8.8413,-8.8406,-8.8399,-8.8546,-8.8559,-8.8571,-8.8793,0,0,-8.861,-8.8615,0,0,0,0,0,0,0,0,-8.8139,-8.8162,-8.8343,-8.8343,-8.8342,-8.8445,-8.8444,-8.8616,-8.8422,-8.8389,-8.8404,-8.8396,-8.8522,-8.8536,-8.858,-8.88,-8.8806,-8.8611,-8.8618,-8.8624,-8.8627,0,0,0,0,0,0,0,-8.8128,-8.8155,-8.8432,-8.8346,-8.8345,-8.8317,-8.8332,-8.8476,-8.8494,-8.8392,-8.8384,-8.8404,-8.852,-8.8568,-8.8583,-8.8808,-8.861,-8.8622,-8.8629,-8.8634,-8.9218,-8.9225,0,0,0,0,0,0,-8.8121,-8.8147,-8.8427,-8.8437,-8.8221,-8.833,-8.8347,-8.8419,-8.8492,-8.8496,-8.841,-8.8398,-8.855,-8.8568,-8.8587,-8.8853,-8.8624,-8.8635,-8.8643,-8.921,-8.9219,-8.9228,0,0,0,0,0,0,-8.8113,-8.8147,-8.8421,-8.829,-8.8323,-8.8344,-8.8426,-8.8426,-8.8473,-8.8506,-8.8508,-8.8456,-8.8545,-8.857,-8.8743,-8.8856,-8.8641,-8.8653,-8.92,-8.9213,-8.9224,-8.9384,0,0,0,0,0,0,-8.8102,-8.8145,-8.823,-8.8293,-8.833,-8.8577,-8.8433,-8.8434,-8.8496,-8.8482,-8.8549,-8.8554,-8.8541,-8.8725,-8.8756,-8.887,-8.8662,-8.919,-8.9206,-8.922,-8.9369,-8.94,-8.9427,0,0,0,0,0,-8.8089,-8.8268,-8.8235,-8.827,-8.8438,-8.8583,-8.8604,-8.8588,-8.8506,-8.8591,-8.8612,-8.8551,-8.8839,-8.8743,-8.8777,-8.8897,-8.9183,-8.9201,-8.9219,-8.9356,-8.9394,-8.9426,0,0,0,0,0,0,-8.8216,-8.8276,-8.824,-8.8445,-8.851,-8.8565,-8.8672,-8.8629,-8.8717,-8.8701,-8.8675,-8.8691,-8.8873,-8.8902,-8.8795,-8.9115,-8.8997,-8.9023,-8.909,-8.9127,-8.9155,-8.9145,-8.8673,0,0,0,0,0,-8.8268,-8.8383,-8.8428,-8.8604,-8.8639,-8.8651,-8.8713,-8.8695,-8.8761,-8.8788,-8.8821,-8.8886,-8.899,-8.906,-8.9158,-8.9372,-8.9385,-8.9471,-8.95,-8.9524,-8.9546,-8.9662,-8.9701,-8.9287,-8.9286,-8.9286,0,0,-8.8377,-8.8423,-8.8497,-8.8631,-8.868,-8.8798,-8.8674,-8.8804,-8.8891,-8.8806,-8.8973,-8.9,-8.907,-8.9266,-8.9353,-8.9295,-8.9663,-8.9546,-8.9565,-8.9575,-8.9684,-8.9724,-8.9758,-8.9299,-8.9296,-8.9294,0,0,-8.8635,-8.8682,-8.8834,-8.8886,-8.8962,-8.8969,-8.9006,-8.9068,-8.9083,-8.925,-8.9189,-8.9291,-8.9472,-8.9526,-8.9576,-8.9856,-8.9804,-8.9889,-9.004,-9.0153,-9.0186,-9.0215,-9.0315,-9.0352,-8.9911,-8.9911,-8.9911,0,-8.8759,-8.8937,-8.8918,-8.9054,-8.9114,-8.9045,-8.9199,-8.925,-8.9353,-8.9396,-8.933,-8.9557,-8.9599,-8.9806,-8.9875,-8.9918,-8.9958,-8.9881,-9.0183,-9.0212,-9.0239,-9.0334,-9.0372,-8.9921,-8.992,-8.9919,-8.9918,0,-8.9087,-8.9211,-8.9325,-8.9429,-8.9503,-8.9647,-8.9648,-8.9725,-8.9701,-8.9714,-8.9885,-8.9934,-9.0041,-9.0089,-9.0065,-9.0293,-9.0255,-9.0187,-9.0068,-9.0288,-9.0378,-9.0414,-8.9935,-8.9932,-8.9929,-8.9926,0,0,-8.9428,-8.9522,-8.9564,-8.9611,-8.9691,-8.9785,-8.9926,-9.0033,-9.0099,-9.0173,-9.029,-9.0446,-9.0384,-9.0441,-9.0423,-9.0523,-9.0742,-9.0442,-9.0443,-9.0497,-9.0997,-9.1048,-9.1091,-9.0708,-9.0715,-9.072,-9.0991,0,-8.9691,-8.9939,-8.9927,-9.0158,-9.0273,-9.0209,-9.0331,-9.0393,-9.0409,-9.0507,-9.0523,-9.0635,-9.0544,-9.0579,-9.0675,-9.0696,-9.0842,-9.0676,-9.0816,-9.0821,-9.0801,-9.1137,-9.1192,-9.1445,-9.1026,-9.1032,-9.1036,0,-9.0031,-9.012,-9.0364,-9.0427,-9.0474,-9.0585,-9.0683,-9.0778,-9.0846,-9.085,-9.0916,-9.0882,-9.1023,-9.0901,-9.1094,-9.0981,-9.1038,-9.1057,-9.1066,-9.1079,-9.0942,-9.116,-9.1525,-9.1564,-9.109,-9.1086,-9.1082,0,-9.0258,-9.0437,-9.0606,-9.0648,-9.0726,-9.0806,-9.0842,-9.0903,-9.0968,-9.1053,-9.1095,-9.1194,-9.1249,-9.1326,-9.1319,-9.123,-9.1516,-9.1393,-9.1523,-9.1524,-9.1586,-9.1582,-9.1967,-9.1622,-9.1621,-9.1621,-9.162,0,-9.0553,-9.0705,-9.0709,-9.0814,-9.0982,-9.0965,-9.1131,-9.1158,-9.1213,-9.1321,-9.127,-9.1372,-9.1357,-9.1458,-9.1453,-9.1615,-9.1639,-9.1646,-9.1643,-9.1651,-9.1651,-9.1688,-9.1671,-9.1631,-9.1628,-9.1626,-9.1625,0,-9.0834,-9.0843,-9.1024,-9.1084,-9.1103,-9.1224,-9.1274,-9.1372,-9.1385,-9.1521,-9.1552,-9.1571,-9.1688,-9.1689,-9.1821,-9.1818,-9.2016,-9.1992,-9.1994,-9.199,-9.212,-9.2108,-9.2543,-9.2599,-9.2217,-9.2221,-9.2224,0,-9.1022,-9.1138,-9.1212,-9.1281,-9.1323,-9.1435,-9.1502,-9.149,-9.1562,-9.1649,-9.1737,-9.185,-9.1939,-9.2128,-9.2153,-9.2254,-9.2233,-9.2378,-9.2248,-9.2253,-9.2236,-9.223,-9.2241,-9.2404,-9.2408,-9.2412,-9.2414,0,-9.1356,-9.1355,-9.1456,-9.1559,-9.1641,-9.1721,-9.1794,-9.1854,-9.185,-9.1933,-9.2053,-9.2123,-9.226,-9.2372,-9.2471,-9.2505,-9.246,-9.2455,-9.2491,-9.2501,-9.2497,-9.2502,-9.2065,-9.2445,-9.2442,-9.244,-9.2438,-9.2437,-9.1597,-9.1697,-9.1766,-9.1879,-9.1934,-9.2004,-9.21,-9.2125,-9.2226,-9.2338,-9.2324,-9.2459,-9.2523,-9.2651,-9.2694,-9.2798,-9.2747,-9.2798,-9.2811,-9.2824,-9.2839,-9.2481,-9.2815,-9.2814,-9.2813,-9.2813,-9.2812,0,-9.1929,-9.197,-9.2075,-9.2181,-9.227,-9.2222,-9.2301,-9.2378,-9.2498,-9.2563,-9.2653,-9.2791,-9.29,-9.2934,-9.3039,-9.3115,-9.3097,-9.3143,-9.3138,-9.3146,-9.2878,-9.2837,-9.3156,-9.3156,-9.3156,-9.3156,-9.3156,-9.3156,-9.2112,-9.228,-9.2287,-9.2482,-9.252,-9.2654,-9.2703,-9.2767,-9.282,-9.2977,-9.3069,-9.3091,-9.3143,-9.3252,-9.3349,-9.3356,-9.3397,-9.3452,-9.3451,-9.32,-9.3165,-9.3132,-9.3094,-9.3461,-9.3462,-9.371,-9.3713,-9.3714]}]]